Theta_e
346 341 341 344 347 348 347 346 346 346 347 347 347 349 350 349 345 342 342 344 344 344 344 344 345 345 346 346 345 345 345 344 343 344 344 341 338 338 337 338 338 337 338 339 340 341 340 339 338 338 339 339 340 342 342 344 344 345 345 344 344 343 342
347 343 342 344 346 347 347 346 346 347 346 347 348 349 350 349 346 342 342 344 344 344 344 344 344 345 346 346 345 345 346 345 343 343 343 342 340 341 340 340 340 339 339 339 340 341 341 340 339 339 340 340 341 342 344 344 344 345 347 347 348 347 343
347 344 342 345 346 346 347 347 346 347 346 347 349 350 350 349 348 344 342 343 344 344 344 344 344 344 344 345 344 345 345 345 344 342 342 341 341 343 343 343 343 342 341 341 341 341 340 341 340 340 341 341 342 344 345 346 346 346 348 348 350 349 345
347 345 343 346 347 345 346 347 347 347 347 348 350 350 350 350 348 346 343 343 343 344 345 344 344 343 342 343 343 343 343 343 343 342 342 343 342 343 343 343 344 344 343 343 342 341 340 341 341 340 341 342 342 343 345 347 347 346 346 347 349 348 345
346 347 345 346 348 347 346 347 347 347 348 349 350 350 350 349 349 348 346 346 343 342 344 344 344 343 342 342 342 341 341 342 343 343 344 346 344 344 344 344 343 344 343 343 343 342 342 343 342 341 342 343 343 343 344 345 345 345 344 344 346 346 344
347 347 346 346 349 349 348 349 348 348 349 349 350 350 350 349 349 349 349 349 346 343 343 344 344 344 343 342 342 341 341 342 344 345 346 346 346 345 345 344 342 342 342 343 343 342 342 343 343 343 343 345 344 344 345 344 344 344 343 342 343 343 342
348 348 347 347 349 349 350 350 350 350 350 349 350 350 350 349 349 349 350 350 349 345 343 343 344 344 343 343 343 341 341 344 345 346 347 346 346 346 345 344 342 341 341 343 343 343 344 344 345 345 345 346 346 346 346 344 343 344 344 342 342 342 341
348 348 347 346 349 350 350 351 350 351 351 351 351 351 350 350 349 349 350 350 350 347 343 343 343 343 344 344 344 343 343 345 346 346 347 347 346 345 345 344 343 341 341 345 348 349 349 348 349 349 349 348 347 346 346 345 343 344 344 343 343 343 342
348 347 347 345 347 350 350 351 350 350 351 351 352 351 350 350 349 349 350 350 350 348 344 343 343 343 344 345 345 345 345 346 346 346 346 346 346 345 345 345 345 347 347 349 350 350 349 348 347 348 350 351 350 347 345 345 345 345 345 344 344 343 343
347 346 347 346 346 348 350 350 350 350 351 350 352 353 352 351 348 349 350 350 349 347 345 344 343 342 343 344 345 345 346 346 346 347 346 345 346 346 345 346 349 350 349 348 347 346 346 346 344 344 347 350 352 349 345 344 346 346 346 345 345 344 343
347 346 346 346 346 346 348 349 349 350 350 350 351 353 353 354 352 350 349 350 351 348 346 345 344 342 342 343 345 345 346 346 346 347 346 345 345 346 347 349 350 350 348 347 347 346 346 346 345 345 346 348 352 352 348 346 347 349 350 349 349 348 347
347 346 346 346 346 345 346 347 348 348 350 350 350 351 351 352 353 353 351 349 350 351 348 345 344 344 342 342 344 344 345 345 346 346 346 345 345 346 348 350 350 349 349 349 349 348 349 348 347 347 348 349 352 352 351 350 350 352 352 352 353 352 351
346 345 345 346 346 346 346 347 347 348 349 349 350 351 351 349 350 353 354 352 350 350 350 348 345 344 343 343 343 343 344 344 345 345 346 346 345 347 350 351 351 350 350 350 349 349 350 350 349 348 349 350 351 351 351 353 353 353 353 353 354 353 352
347 346 346 346 346 346 346 346 346 347 347 347 348 349 351 349 347 350 353 354 353 352 351 350 347 344 343 343 343 343 343 343 344 344 344 345 346 348 351 351 351 351 351 351 351 351 350 350 351 350 349 351 352 351 352 352 352 353 353 352 352 353 352
349 348 348 348 347 346 346 346 345 346 346 347 347 348 350 350 348 348 350 351 352 353 353 351 349 345 343 343 343 343 343 343 343 343 346 348 348 349 352 352 351 351 352 352 352 352 351 351 351 351 351 351 351 352 352 352 352 352 352 352 351 351 350
349 348 348 348 347 347 346 346 346 346 346 346 347 348 349 349 348 350 350 348 348 352 353 352 349 344 342 343 344 345 345 345 345 346 349 350 350 351 352 351 351 352 352 352 352 351 351 351 352 352 351 351 351 352 352 352 352 352 350 350 350 349 349
350 349 348 348 348 348 347 346 346 345 346 347 347 347 347 347 349 350 350 349 347 349 352 353 350 346 345 345 347 350 351 349 349 349 351 351 351 352 352 351 351 352 352 352 352 351 351 351 352 352 351 351 352 352 352 352 352 351 350 350 350 350 350
351 350 349 348 348 350 349 347 346 345 345 346 346 346 345 345 348 349 349 350 350 350 353 354 353 350 349 347 348 351 351 351 352 351 351 351 351 352 352 352 351 352 352 352 351 351 350 349 349 351 351 351 350 351 351 351 351 351 351 351 352 352 352
351 351 350 349 348 349 349 348 347 345 345 345 345 345 345 345 347 349 350 351 352 352 354 355 355 354 352 350 350 349 349 350 351 351 351 351 351 351 352 351 351 350 350 350 349 349 349 348 347 348 349 349 348 348 348 348 348 349 350 351 351 352 352
350 351 350 348 348 348 348 349 348 346 345 346 347 348 348 348 348 349 351 352 352 351 351 352 353 354 354 352 351 350 348 350 351 351 351 351 351 351 351 350 350 349 348 348 347 346 347 347 346 345 346 347 347 347 347 347 347 347 347 347 347 347 348
350 350 348 348 349 349 349 349 349 348 346 347 349 349 348 348 348 349 350 350 349 348 347 347 350 352 352 352 351 349 349 351 352 352 352 351 351 351 351 350 349 349 348 347 347 346 345 345 345 344 345 345 346 345 346 346 346 345 345 345 345 344 344
349 348 347 347 348 349 349 349 349 349 347 347 347 346 344 345 346 348 348 347 347 347 346 345 347 349 350 351 350 348 347 350 353 352 351 351 351 351 350 350 349 348 347 347 347 346 345 345 345 344 344 345 345 345 346 345 346 346 346 345 345 345 344
348 347 347 347 347 347 347 348 349 349 348 347 347 345 345 346 346 347 346 346 346 346 345 344 346 347 348 350 349 347 345 347 351 353 352 350 349 349 349 348 347 345 346 347 347 346 346 346 345 345 345 346 346 346 346 346 346 347 347 347 347 346 346
345 346 347 346 347 347 346 346 349 350 349 348 348 347 347 347 346 346 346 346 345 345 346 346 345 346 347 347 348 347 345 346 350 353 352 350 349 349 349 349 347 345 346 347 347 347 348 348 347 347 348 348 348 348 348 348 348 348 348 348 348 348 348
341 343 344 344 345 347 347 346 347 349 349 349 348 349 349 348 347 346 347 347 346 346 348 347 346 347 348 348 348 347 346 348 351 353 352 351 350 349 350 350 349 348 347 347 347 348 349 349 349 349 349 349 349 349 348 348 348 348 348 348 349 349 349
338 340 342 343 344 345 346 346 346 347 348 349 350 351 350 350 350 349 350 350 349 349 350 350 348 348 349 350 350 351 350 351 352 353 352 352 351 351 351 350 349 349 349 348 349 350 350 349 349 349 349 349 348 348 348 348 348 347 347 347 348 349 349
338 338 340 342 342 344 345 345 346 346 347 348 349 349 349 349 349 350 350 350 350 351 351 351 350 348 349 351 352 352 352 352 352 352 352 352 352 352 351 351 350 350 350 349 349 349 349 349 349 349 349 349 348 349 348 348 348 347 347 347 347 347 347
338 338 338 339 340 342 343 344 345 345 345 346 347 347 348 348 347 348 348 347 348 350 350 350 349 349 350 351 350 350 350 350 349 349 350 350 349 349 350 350 350 349 349 349 349 348 348 348 348 348 348 347 347 347 346 346 346 345 345 345 345 345 345
336 336 337 338 338 339 341 342 343 343 343 344 345 345 345 346 346 347 348 347 347 346 346 347 348 348 348 349 348 348 347 346 346 346 346 346 346 346 347 348 347 346 346 346 346 345 346 346 345 345 345 345 344 344 342 342 341 341 340 340 340 341 342
333 334 335 336 336 336 338 340 340 341 341 341 342 342 343 343 344 345 345 345 344 342 342 343 344 344 344 345 345 345 344 343 344 344 344 344 343 344 344 344 344 344 344 343 343 343 343 343 342 342 341 340 339 338 337 336 334 334 334 334 333 334 334
331 332 332 332 331 333 336 339 339 339 339 339 339 340 341 342 343 343 343 342 341 340 340 340 341 342 343 343 343 343 344 343 343 343 343 342 341 342 342 342 342 342 342 341 341 341 340 339 337 336 334 332 330 329 329 328 327 327 327 327 326 326 326
328 328 328 327 326 328 334 337 337 337 337 337 337 339 339 340 341 341 340 339 339 338 339 339 339 340 341 341 341 340 340 340 340 339 338 336 336 337 337 338 338 337 336 335 334 334 334 332 331 329 327 325 324 324 324 324 323 323 322 322 322 322 322
327 326 327 326 323 322 325 328 329 331 332 332 333 333 334 336 338 338 338 337 336 335 335 335 336 337 338 338 337 336 335 336 336 334 331 329 329 329 330 330 330 330 329 328 328 327 327 327 327 327 326 325 325 325 325 326 326 325 324 325 326 326 326
327 327 327 325 320 316 316 317 318 321 323 324 325 325 325 329 333 334 334 334 333 332 331 331 331 331 330 331 331 330 330 330 329 329 327 324 324 325 326 326 326 326 326 326 326 326 326 327 328 327 326 326 326 326 326 327 328 328 328 328 327 325 324
328 327 322 317 314 311 311 310 311 312 314 315 317 317 317 320 325 327 328 328 328 328 328 328 328 327 327 327 326 325 327 328 328 327 326 326 326 327 327 327 327 327 326 326 327 327 327 328 328 327 327 327 327 327 327 328 328 327 326 324 322 320 319
327 323 316 312 312 312 310 309 309 309 309 309 310 311 311 312 315 318 319 320 321 321 320 322 324 325 324 322 320 320 321 324 327 329 328 328 328 328 326 327 328 328 326 326 327 327 327 328 328 327 327 327 326 325 325 325 324 322 320 319 317 316 314
324 317 313 313 314 313 312 312 311 309 309 308 308 308 309 309 310 311 312 314 315 315 315 317 319 319 318 318 319 320 317 315 321 328 328 328 330 328 325 325 328 329 328 328 328 328 328 327 327 327 327 326 326 325 323 322 320 318 315 313 312 310 309
320 315 315 317 316 315 315 314 313 312 311 310 309 309 309 310 310 309 309 310 310 310 311 313 314 315 319 322 325 325 319 315 319 325 325 324 326 327 326 326 327 328 328 328 327 327 327 326 326 325 325 324 323 321 319 317 315 313 311 310 309 309 308
Wind_Speed
23 30 35 40 43 43 43 42 39 36 33 30 28 25 23 22 24 26 26 26 26 25 26 26 25 25 25 25 23 21 20 19 18 17 16 17 17 16 15 16 15 15 13 12 11 10 10 11 10 10 10 10 9 8 9 9 8 7 7 8 8 8 8
23 27 34 40 43 44 43 42 40 37 35 31 29 26 24 23 25 26 26 26 26 26 26 26 25 25 25 25 24 23 22 21 20 19 18 18 17 17 16 16 16 16 14 13 13 12 12 12 12 12 12 11 10 10 10 10 9 8 8 8 8 8 8
26 25 33 40 43 44 43 42 41 38 35 33 30 27 25 24 25 26 26 26 26 26 26 26 26 26 25 25 25 25 23 22 21 21 20 19 18 17 17 16 16 15 15 14 14 14 13 13 13 14 13 12 12 11 10 9 9 9 9 9 9 9 9
33 27 31 38 42 43 43 43 42 39 36 34 30 27 25 24 24 24 25 25 26 26 26 27 27 26 26 26 26 25 24 22 22 21 20 19 17 17 17 17 16 15 15 15 15 15 15 15 15 15 15 14 13 12 10 9 10 10 10 10 10 10 10
35 29 30 36 40 42 43 43 42 40 37 34 31 27 25 24 24 24 24 24 25 25 26 26 27 26 26 26 25 25 24 23 22 21 19 19 18 17 18 18 17 16 16 15 16 16 15 16 16 16 16 15 14 12 10 10 11 11 11 11 11 11 11
36 31 30 35 38 40 41 42 42 40 37 34 31 29 26 25 25 26 25 25 25 25 25 26 26 27 26 26 25 25 24 23 22 21 19 18 18 18 19 18 17 16 16 16 16 16 16 15 16 16 16 16 14 12 11 11 12 12 12 11 12 12 12
35 33 32 35 38 39 39 39 39 39 37 34 31 29 28 26 26 26 26 25 25 25 26 26 27 26 26 26 25 25 24 23 22 21 19 18 18 18 19 19 18 17 16 15 15 16 15 15 15 15 15 14 13 11 11 12 13 13 12 11 11 12 12
33 33 33 36 38 39 40 40 40 39 37 35 33 31 29 28 27 27 26 25 25 26 27 27 27 27 26 25 25 25 24 22 21 21 19 19 18 18 19 19 18 17 15 16 18 18 18 18 18 17 15 14 13 11 11 12 12 13 12 11 11 12 12
30 31 32 34 37 38 38 39 39 39 38 37 35 33 32 30 28 28 27 25 25 26 27 26 26 26 26 25 25 24 23 22 21 20 20 19 19 19 18 18 17 16 17 19 19 17 15 16 17 16 15 15 13 12 12 12 12 12 12 12 11 12 13
29 31 30 32 35 36 36 36 36 35 37 37 36 34 33 32 30 29 28 26 25 25 26 26 26 26 26 26 24 23 23 23 22 21 21 20 19 19 17 16 16 16 17 17 15 13 12 13 14 14 15 15 13 13 13 12 12 11 12 12 11 12 13
29 31 30 29 32 34 33 34 35 34 34 37 38 36 35 33 32 31 29 27 25 24 25 26 26 26 26 26 25 23 23 23 22 22 21 20 20 19 17 15 16 16 15 14 13 13 13 13 13 13 14 14 13 12 12 12 12 11 11 11 10 11 12
28 30 28 24 26 30 31 31 34 35 35 36 37 38 37 34 31 31 31 28 25 23 24 26 26 26 26 26 25 24 23 23 22 22 22 21 20 19 17 16 16 16 15 14 14 14 14 14 14 14 13 13 13 13 13 13 12 11 11 10 9 10 11
29 30 30 27 26 27 29 30 32 35 37 36 34 35 36 35 32 31 32 30 27 24 24 26 26 26 26 26 26 25 24 23 23 22 21 21 20 19 18 17 17 16 15 15 15 14 14 15 15 13 13 13 13 13 14 14 14 12 12 11 10 10 11
29 30 31 30 30 29 30 31 32 34 36 36 34 33 34 35 33 32 32 31 29 27 25 24 26 27 26 26 25 25 24 23 22 22 21 20 19 19 18 18 17 17 17 15 15 15 15 15 14 13 13 14 14 14 13 14 14 13 13 13 13 12 12
28 29 29 29 29 29 30 32 34 35 36 37 36 35 34 32 31 32 33 30 29 30 27 24 26 28 27 26 25 24 23 22 22 21 19 19 18 19 19 19 18 17 17 15 14 15 15 14 14 13 13 15 16 15 14 14 15 15 15 15 15 14 13
24 27 28 28 28 28 28 29 32 36 36 36 36 35 33 31 30 33 35 30 28 31 30 26 24 27 27 26 24 21 20 20 20 20 18 18 18 18 20 20 19 18 17 15 14 14 14 14 15 14 14 15 16 16 16 15 15 16 16 16 15 15 13
20 23 26 27 27 27 28 28 30 34 35 34 34 34 32 31 31 34 35 32 29 30 31 28 25 25 26 26 24 22 21 21 21 19 18 18 18 18 19 19 19 18 17 15 15 14 14 15 16 15 14 15 16 16 16 16 15 15 15 14 14 13 13
17 20 23 26 26 25 26 28 30 31 33 33 33 34 34 32 33 34 35 34 32 31 32 30 27 25 25 25 25 23 21 23 23 21 20 19 19 19 19 19 19 18 17 17 17 16 15 15 15 16 16 16 16 15 15 15 15 14 13 13 13 13 13
15 17 19 24 25 24 22 23 26 27 29 30 32 35 35 34 35 35 35 35 34 31 30 30 28 27 25 24 25 24 23 24 25 24 22 21 20 20 20 20 20 19 18 18 18 17 17 16 15 15 16 17 16 15 14 14 14 13 13 13 12 13 14
13 14 15 17 21 24 23 22 23 26 28 30 31 31 33 34 35 34 35 35 33 29 28 28 28 29 28 26 25 25 24 25 27 27 25 23 23 22 21 20 19 19 18 18 18 18 18 18 16 16 17 17 16 15 15 15 15 14 14 13 13 14 15
10 12 13 15 18 22 24 25 26 25 26 29 28 27 28 30 31 32 33 33 30 27 27 28 29 31 31 28 26 24 24 27 29 29 28 25 24 23 22 20 19 18 19 21 21 20 19 19 18 17 17 18 17 17 17 17 16 16 15 15 15 15 16
7 8 10 11 15 17 18 22 26 27 26 27 28 28 28 28 30 31 30 29 28 25 24 24 27 31 32 29 27 24 24 27 30 30 29 28 27 25 23 21 20 20 20 22 23 22 20 19 18 18 18 18 18 19 18 18 17 17 17 17 17 17 17
3 4 3 5 9 10 9 13 22 27 28 28 28 29 28 27 29 29 26 25 24 23 22 22 26 31 31 29 27 26 25 27 30 30 30 30 28 25 24 23 22 21 21 22 23 23 22 20 19 18 19 19 19 19 20 19 19 19 19 20 20 20 20
3 4 4 3 4 5 5 9 17 25 28 28 27 27 27 27 27 26 25 23 22 22 24 24 28 31 30 27 26 26 26 27 30 31 29 27 25 23 22 22 21 21 21 22 23 23 23 22 20 20 19 19 20 20 20 21 21 21 21 21 21 22 22
3 4 5 4 4 4 5 8 13 18 22 25 27 27 26 28 27 26 25 24 24 24 25 26 29 29 27 25 25 25 26 28 30 31 29 27 26 23 22 21 19 20 21 22 23 23 21 19 18 18 19 19 19 20 20 20 21 21 22 22 22 22 21
2 4 4 5 5 6 8 8 9 11 13 19 24 24 24 25 26 27 27 27 26 26 27 28 28 24 23 24 25 25 26 27 27 27 26 25 24 23 22 20 19 19 19 19 20 21 19 15 15 17 17 18 19 19 19 20 20 21 22 22 22 21 20
7 7 7 7 8 9 10 10 10 9 10 13 17 19 19 18 18 20 22 22 23 24 24 24 22 21 22 23 22 20 20 20 21 21 20 20 20 20 20 19 19 19 19 18 18 18 16 14 14 15 16 17 18 18 18 18 18 19 19 19 19 19 18
12 12 11 10 10 9 10 11 11 11 12 13 13 15 15 14 13 14 14 15 18 20 18 17 18 18 19 19 18 16 16 16 17 17 18 20 20 19 19 19 19 19 19 18 16 15 14 14 15 15 16 16 15 15 14 14 14 14 13 13 13 13 14
12 12 11 11 10 9 9 10 10 10 10 11 11 11 10 10 11 12 11 12 14 13 13 15 16 16 16 17 16 14 12 12 13 12 13 17 17 16 16 18 18 16 14 13 13 14 14 15 15 15 14 14 13 12 11 9 9 9 9 8 7 8 9
10 9 8 9 9 7 8 9 10 10 10 8 7 6 4 3 4 6 6 7 7 6 10 12 12 11 11 12 11 10 10 10 10 8 6 7 9 10 12 13 13 12 10 10 10 11 12 13 13 12 12 12 10 9 7 6 6 6 6 6 5 5 5
8 8 8 8 8 7 8 11 11 12 12 11 9 7 5 3 2 4 6 7 7 8 10 10 9 10 11 11 11 12 13 13 11 9 7 6 6 6 7 8 9 10 10 9 9 9 10 11 11 9 9 8 6 5 5 4 4 4 4 3 3 3 3
7 7 7 7 7 7 9 12 12 12 13 13 11 10 8 6 5 6 10 11 11 10 9 9 9 11 12 12 11 11 11 11 10 9 9 9 8 8 8 8 9 10 10 9 9 9 10 10 9 9 8 7 7 6 5 5 4 4 4 4 3 3 2
6 6 6 6 6 6 7 9 11 12 13 13 12 10 10 8 7 9 12 12 12 11 11 10 10 11 12 12 11 11 10 9 9 10 10 11 11 11 11 11 10 10 11 11 11 11 11 10 10 9 9 7 7 6 6 6 6 5 5 4 4 3 3
6 5 5 5 6 5 5 6 8 10 11 12 12 11 9 8 9 10 11 11 10 10 10 11 11 11 12 12 11 11 10 10 10 11 11 12 12 12 12 12 12 11 11 11 10 10 9 8 8 7 6 5 5 5 5 4 4 4 5 5 5 5 5
6 5 5 6 7 6 5 5 6 7 8 9 10 10 9 9 9 10 10 9 9 8 8 9 10 11 11 11 11 10 9 9 10 10 10 11 11 11 10 10 10 10 10 10 10 8 7 7 6 5 4 4 4 3 3 3 4 4 5 5 6 6 7
4 4 6 9 10 9 8 7 6 6 6 7 7 8 8 8 9 9 9 8 8 7 6 6 7 8 9 8 8 8 8 8 8 9 9 9 9 9 8 9 9 9 9 8 8 7 7 6 5 5 4 3 3 3 3 4 5 6 7 8 9 10 11
3 5 8 10 10 10 10 9 8 6 6 6 6 6 5 5 6 8 8 8 7 6 5 6 6 7 6 6 6 7 6 7 8 9 8 8 8 7 6 7 8 9 9 7 6 6 5 5 5 5 4 4 4 5 6 7 9 10 11 11 12 12 12
3 6 9 9 9 9 9 9 8 7 7 6 6 6 5 4 4 5 6 7 7 7 7 7 7 7 7 7 7 7 6 6 8 9 7 7 7 7 6 6 7 9 9 8 7 7 6 6 7 7 7 7 7 8 9 9 9 9 10 9 9 9 9
Wind_Direction
195 191 189 190 192 192 193 195 196 197 198 199 201 201 202 202 200 201 203 203 203 203 203 203 202 202 203 204 205 207 209 211 213 216 217 216 214 213 212 213 217 219 219 220 222 225 225 221 217 216 220 225 224 225 229 231 230 222 222 225 222 218 219
199 192 188 190 192 193 195 196 197 198 198 200 201 202 201 201 201 201 202 203 203 203 204 204 203 204 205 205 206 208 209 212 214 216 218 217 217 218 216 215 217 219 220 222 224 225 225 222 220 219 222 226 227 232 235 235 231 228 231 231 230 226 220
201 195 189 189 192 194 195 196 197 199 199 199 201 202 201 201 203 202 202 202 203 204 205 204 204 205 206 206 206 208 209 211 213 214 216 217 218 219 220 219 219 220 220 221 224 223 222 223 221 218 221 225 226 228 233 235 232 232 236 237 237 235 228
199 198 192 191 193 195 196 196 197 199 200 201 201 203 202 201 203 202 202 203 202 204 205 205 205 205 205 206 207 208 209 210 213 214 214 216 217 220 222 222 221 221 219 221 223 222 221 223 221 218 218 221 224 227 231 236 235 233 236 237 234 234 234
194 197 195 192 192 193 195 196 197 199 201 202 203 204 203 201 201 202 203 204 203 206 206 205 206 206 206 207 208 209 209 211 213 213 213 215 215 217 221 222 222 222 221 222 223 223 221 221 222 219 218 220 222 223 229 237 238 236 238 237 232 234 237
189 194 195 192 190 191 193 195 198 200 202 203 204 204 203 201 202 205 207 207 205 206 207 206 207 207 207 207 209 209 210 211 212 212 213 215 215 216 219 221 223 223 223 224 226 227 224 222 223 222 220 221 223 223 227 232 235 237 238 237 234 236 240
186 191 192 189 188 189 191 193 195 198 202 205 207 206 205 204 204 206 209 210 209 206 206 207 207 207 207 207 208 209 209 210 211 212 213 215 217 218 220 223 225 225 224 226 228 230 228 226 227 227 227 228 226 227 231 231 233 237 238 236 235 237 239
184 188 188 187 188 189 190 193 195 197 199 203 207 208 207 207 208 209 209 211 211 209 207 208 207 207 207 207 207 208 208 210 211 212 213 216 217 219 221 223 225 225 224 226 227 225 224 223 222 222 227 235 236 231 230 231 232 234 236 236 236 236 236
179 181 182 185 189 191 191 192 194 197 199 201 206 209 210 210 211 211 209 209 211 210 209 209 209 208 206 206 207 208 208 208 211 212 213 215 216 218 220 220 222 225 226 227 229 227 227 230 230 225 223 229 238 234 228 229 228 229 234 235 235 236 235
171 171 174 181 188 191 192 192 195 198 201 202 204 206 209 212 214 213 210 208 209 210 209 210 210 209 208 207 207 208 207 207 208 210 213 214 216 218 217 216 223 229 229 230 232 231 231 234 236 235 226 219 225 231 228 225 224 226 230 230 230 234 234
169 170 170 176 184 189 193 196 199 201 202 203 204 205 207 209 212 212 211 209 208 208 210 210 210 210 209 208 208 208 208 208 208 209 212 212 214 216 214 215 224 228 227 229 228 224 223 224 226 233 231 217 213 224 226 220 219 222 225 225 226 230 232
169 175 175 179 185 189 194 200 204 205 203 202 205 209 210 211 213 214 212 210 210 210 209 210 210 211 209 208 209 209 209 210 210 211 212 212 213 214 210 211 220 223 223 225 224 219 219 222 223 225 225 218 212 215 217 217 218 219 223 227 231 236 234
169 175 181 188 193 193 194 197 203 205 205 205 209 211 212 213 216 218 216 212 211 212 211 209 210 210 210 208 209 210 210 211 212 213 214 215 215 212 208 210 218 222 222 222 221 220 220 223 226 224 219 216 214 213 214 218 222 224 228 232 236 243 242
172 175 181 190 197 200 199 198 201 206 208 209 211 211 212 212 214 220 221 216 213 213 211 210 210 210 210 210 210 211 212 213 215 215 215 217 217 213 211 213 217 220 223 222 223 226 228 228 228 226 221 214 213 216 219 223 227 231 235 238 238 242 246
177 180 184 191 197 203 204 203 203 206 208 209 210 211 211 211 214 219 222 222 222 219 213 210 210 209 209 210 212 212 212 214 217 217 216 218 218 215 215 217 218 219 221 221 223 228 231 230 229 229 226 219 215 220 226 231 235 237 240 243 241 240 244
181 184 186 190 196 201 203 203 203 204 206 207 209 210 210 211 213 216 220 223 227 226 219 211 207 207 209 211 211 210 210 214 216 215 214 214 212 212 216 218 217 219 220 219 222 227 230 231 230 230 226 219 218 223 229 233 237 240 241 241 240 240 243
184 188 189 191 195 199 202 202 202 202 204 205 205 206 209 213 214 215 220 223 223 225 223 214 205 203 206 207 205 204 210 216 217 215 214 213 209 210 216 218 216 218 221 223 226 229 231 232 230 229 226 221 219 223 229 233 236 238 237 235 236 239 243
184 189 194 195 193 195 200 203 204 204 206 208 208 207 211 215 215 215 220 222 219 220 223 219 211 205 204 203 200 201 209 217 218 216 216 218 216 217 222 224 222 223 226 229 231 230 231 231 228 226 225 223 221 222 227 233 236 235 234 234 236 242 246
185 188 193 196 195 193 194 200 205 206 208 212 213 214 215 216 215 215 218 219 217 218 222 222 218 212 209 207 207 207 208 213 217 218 218 219 220 223 227 231 230 230 231 231 230 228 229 230 227 224 224 225 226 226 228 233 236 235 234 236 239 245 249
187 189 187 187 195 201 202 200 200 201 205 211 214 216 216 215 215 216 217 217 217 219 224 228 227 222 217 214 215 215 211 211 217 221 221 222 225 227 230 233 234 237 239 236 230 227 227 228 227 227 227 228 230 231 232 235 237 238 238 242 246 249 250
194 197 189 176 183 197 202 204 204 201 202 208 210 209 211 214 217 218 218 220 221 223 225 230 233 230 223 217 217 219 216 215 220 225 225 225 227 228 230 231 232 235 238 238 234 229 225 225 226 227 229 230 232 234 236 237 239 240 243 247 249 251 252
210 215 205 183 185 195 197 202 209 208 206 208 209 208 210 216 220 220 219 221 222 222 223 229 234 231 224 217 218 220 220 220 224 228 227 226 226 225 227 229 230 230 230 230 230 230 226 223 223 224 227 230 232 235 238 238 240 242 244 247 248 249 251
197 233 232 186 197 209 203 202 208 208 206 207 208 209 209 213 218 219 214 212 214 217 223 229 233 230 224 219 221 225 225 225 227 227 225 224 224 227 231 233 236 240 237 228 224 224 224 223 222 222 224 227 230 233 236 239 241 243 244 246 249 251 252
198 216 225 199 195 202 195 196 200 200 199 200 203 206 206 207 212 212 209 209 216 222 224 225 227 230 229 227 228 231 230 227 229 229 228 230 235 240 241 238 237 240 238 230 227 226 222 217 218 221 223 227 229 232 235 239 242 245 247 249 251 254 256
227 210 206 196 183 168 161 180 191 193 193 196 201 206 206 204 204 206 210 216 220 221 220 220 222 226 229 229 229 229 228 226 230 234 237 240 244 245 241 236 235 235 234 234 237 238 230 218 217 224 228 230 233 235 237 241 244 248 251 253 254 255 256
160 173 174 165 158 153 148 158 180 191 188 189 196 202 203 202 200 204 210 212 211 211 213 215 217 220 227 230 228 225 224 225 231 238 242 244 245 242 236 231 228 228 229 230 233 239 241 236 231 232 233 235 238 239 240 243 246 249 252 254 256 258 258
117 121 130 134 139 148 151 155 167 175 173 181 193 200 203 204 203 204 206 202 202 207 209 212 215 221 227 231 229 226 226 227 233 239 241 239 234 228 225 222 219 219 219 221 225 232 238 239 235 233 233 234 237 239 241 244 248 251 254 256 258 259 259
108 105 111 120 129 142 154 161 166 166 166 174 186 194 200 202 202 205 202 196 200 206 206 210 215 215 217 223 225 223 223 227 233 236 237 234 227 219 215 214 213 212 211 211 217 222 225 227 229 229 229 230 231 236 241 244 248 252 254 255 256 255 254
109 111 115 117 118 125 139 151 158 158 161 170 180 190 199 202 200 199 194 197 206 202 190 197 206 204 205 214 218 213 208 214 223 228 235 239 236 230 226 222 218 218 215 211 213 217 219 223 224 223 224 226 229 232 236 239 241 242 240 237 237 240 243
120 120 116 105 97 100 115 125 127 126 129 138 149 161 176 193 198 192 180 189 199 168 154 174 186 181 182 191 192 183 170 171 183 188 199 220 222 219 222 220 215 214 212 208 211 214 214 213 210 208 210 211 210 209 211 215 217 218 218 216 217 223 232
125 117 108 92 80 87 110 117 115 110 107 104 103 110 116 114 154 171 153 146 145 137 140 154 155 146 147 150 149 148 146 147 152 155 151 151 162 180 193 191 186 188 189 191 197 202 202 199 195 191 187 180 170 166 179 195 205 210 211 206 209 221 236
124 106 94 80 74 89 110 116 115 110 105 100 94 94 96 97 113 134 130 124 123 125 130 139 142 141 143 144 143 141 140 143 146 146 145 144 146 154 163 168 176 183 179 172 171 175 181 182 174 163 157 149 140 142 157 166 167 166 165 167 178 195 212
125 104 84 62 62 87 109 112 111 111 108 105 102 98 96 101 114 120 117 115 115 117 122 128 132 133 137 142 142 138 137 143 146 147 148 146 146 151 154 155 161 163 157 153 154 160 166 170 166 160 157 154 151 153 158 160 162 170 181 195 216 238 253
123 104 77 53 58 83 113 117 112 112 112 111 111 109 107 114 124 124 120 119 122 126 130 132 131 131 135 137 135 134 137 140 143 147 149 146 146 148 148 149 153 156 155 156 159 164 169 174 176 174 169 165 167 171 173 179 191 205 217 232 250 258 264
116 91 66 66 76 86 101 115 116 117 119 121 121 123 122 125 129 131 131 132 136 140 141 140 140 141 142 140 135 133 138 142 145 148 149 149 150 150 152 154 159 164 167 166 163 165 171 175 179 182 174 165 172 182 196 219 237 248 256 266 274 278 286
95 82 79 86 91 92 94 100 103 106 114 119 122 129 135 140 144 147 148 151 156 157 153 153 154 155 157 157 149 142 147 156 159 158 159 162 163 165 166 166 165 170 177 177 172 173 177 178 182 187 183 181 199 217 233 251 267 277 283 287 291 293 296
58 89 97 96 96 95 95 95 94 95 98 100 105 114 124 142 158 165 168 170 174 178 181 184 186 189 194 195 178 167 172 179 178 175 176 177 180 187 188 180 175 176 181 186 191 198 204 207 211 217 226 241 257 266 272 279 284 288 291 294 295 295 296
83 107 110 101 91 87 84 83 83 84 83 83 90 98 105 121 150 172 181 183 187 194 201 205 211 216 214 204 195 195 202 196 186 188 195 195 198 207 211 201 194 194 197 204 214 223 231 237 243 249 256 263 270 276 280 284 289 294 299 303 302 299 298